Pagina principale
METAR-TAF:

METAR-TAF

Aeroporti :

Meiringen, Svizzera

latitudine: 46-44-25N, longitudine: 8-06-36E, altezza: 577 m

Osservazione

Il bollettino è stato emesso 14 minuti fa, alle 14:50 UTC
Vento 7 kt da est, variando fra nord/nord-est e sud/sud-est
Temperature 15°C
Umidità 67%
Pressione 1004 hPa
Visibilità 10 km o più
Cielo coperto ad un'altezza di 6600 ft

METAR: LSMM 051450Z 10007KT 030V160 9999 OVC066 15/09 Q1004 RMK BLU

Ora: 17:04 (15:04 UTC)


TAF: mancante

Osservazioni e previsioni meteorologiche di più di 4000 aeroporti (messaggi METAR e TAF).

Le stazioni disponibili sono rappresentate dai dischi gialli e rossi sulla carta.

Puntare il mouse per vedere il nome della stazione.

Clicca sopra per visualizzare le osservazioni e previsioni meteorologiche.

Per cambiare la mappa : fare clic sui pulsanti verdi con una croce nera per ingrandire, il pulsante verde con un trattino per diminuire, o sulla freccia verde per le mappe adiacenti.


METAR-TAF: